This is the latest recevied weather packets stored in our database for station/object KI6PPU. If no packets are shown the sender has not sent any weather packets the latest 10 day(s).
| Time | Temp. | Humidity | Pressure | Rain* | Wind** | Luminosity | Snow |
|---|---|---|---|---|---|---|---|
| 1777863668 | 15.56° C | 70% | 1015 hPa | 0 mm | - | 0 W/m² | - |
| 1777863365 | 15.56° C | 70% | 1015 hPa | 0 mm | - | 0 W/m² | - |
| 1777863062 | 15.56° C | 70% | 1015 hPa | 0 mm | - | 0 W/m² | - |
| 1777862759 | 16.11° C | 69% | 1014.9 hPa | 0 mm | - | 1 W/m² | - |
| 1777862455 | 16.11° C | 71% | 1014.8 hPa | 0 mm | - | 4 W/m² | - |
| 1777862152 | 16.11° C | 69% | 1014.6 hPa | 0 mm | - | 6 W/m² | - |
| 1777861848 | 16.11° C | 70% | 1014.8 hPa | 0 mm | - | 7 W/m² | - |
| 1777861544 | 16.11° C | 69% | 1014.8 hPa | 0 mm | - | 11 W/m² | - |
| 1777861240 | 16.67° C | 71% | 1014.6 hPa | 0 mm | - | 17 W/m² | - |
| 1777860938 | 16.67° C | 70% | 1014.4 hPa | 0 mm | - | 24 W/m² | - |
| 1777860635 | 16.67° C | 72% | 1014.6 hPa | 0 mm | - | 24 W/m² | - |
| 1777860332 | 16.67° C | 72% | 1014.5 hPa | 0 mm | - | 22 W/m² | - |
| 1777860028 | 16.67° C | 69% | 1014.4 hPa | 0 mm | - | 20 W/m² | - |
| 1777859725 | 16.67° C | 70% | 1014.5 hPa | 0 mm | - | 12 W/m² | - |
| 1777859421 | 16.67° C | 69% | 1014.3 hPa | 0 mm | - | 12 W/m² | - |
| 1777859117 | 16.67° C | 69% | 1014.2 hPa | 0 mm | - | 22 W/m² | - |
| 1777858814 | 16.67° C | 69% | 1014.1 hPa | 0 mm | - | 23 W/m² | - |
| 1777858512 | 16.67° C | 67% | 1014.2 hPa | 0 mm | - | 27 W/m² | - |
| 1777858209 | 17.22° C | 69% | 1014.1 hPa | 0 mm | - | 28 W/m² | - |
| 1777857906 | 17.22° C | 69% | 1014.2 hPa | 0 mm | - | 34 W/m² | - |
| 1777857604 | 17.78° C | 67% | 1014.1 hPa | 0 mm | - | 59 W/m² | - |
| 1777857300 | 17.78° C | 67% | 1014.1 hPa | 0 mm | - | 98 W/m² | - |
| 1777856996 | 17.78° C | 68% | 1014.2 hPa | 0 mm | - | 131 W/m² | - |
| 1777856692 | 17.78° C | 65% | 1014.3 hPa | 0 mm | - | 132 W/m² | - |
| 1777856388 | 17.78° C | 66% | 1014.3 hPa | 0 mm | - | 144 W/m² | - |
* Rain latest hour (hover to see other rain measurements)
** Current wind speed in m/s (hover to see current wind gust speed)